RH
65 62 58 63 64 64 92 100 100 99 98 97 95 87 78 91 84 61 44 33 13 16 20 18 13 12 13 16 18 16 16 14 14 16 21 24 24 25 26 26 27 26 26
63 59 56 60 61 58 59 94 99 98 100 99 90 92 100 78 79 67 46 33 17 13 18 20 18 14 13 13 14 15 16 15 16 17 21 23 25 25 26 26 28 28 28
58 57 55 60 56 59 56 67 98 99 99 100 100 80 89 93 81 83 51 38 22 11 14 17 19 20 17 16 15 15 16 16 17 19 21 23 24 25 25 27 28 28 29
61 58 61 59 54 62 75 100 100 84 74 89 86 94 56 66 72 61 47 30 21 16 12 14 19 20 20 20 19 18 19 19 20 22 23 24 24 25 26 27 27 28 30
61 57 57 54 53 66 84 95 97 77 70 72 78 74 80 78 66 49 39 32 38 27 18 13 13 16 19 21 22 22 22 22 23 24 24 25 25 26 26 27 28 29 31
61 56 56 55 53 63 91 100 99 92 76 70 59 59 60 62 77 55 50 48 33 27 22 17 13 14 16 19 21 23 23 24 24 24 25 25 25 27 26 26 28 30 33
55 55 60 55 54 63 86 100 99 98 76 76 72 71 85 88 82 82 75 56 38 38 32 24 19 16 15 16 19 21 22 23 25 25 25 25 26 27 26 27 28 31 34
56 53 53 50 49 58 71 84 99 100 91 81 70 86 77 65 59 74 65 74 65 48 40 38 37 32 24 19 19 19 21 23 24 25 26 25 28 28 28 28 30 33 35
60 56 53 49 48 56 61 67 65 92 99 96 92 83 78 63 58 45 44 36 34 68 60 47 42 45 46 38 28 23 22 23 24 26 26 26 28 29 30 32 33 38 40
55 55 52 50 47 47 49 67 61 75 89 89 88 78 69 59 44 42 28 34 29 31 50 59 56 46 50 54 50 39 29 26 26 26 27 30 31 34 36 38 40 43 46
54 53 52 50 49 48 47 49 53 73 94 87 93 76 64 55 42 29 22 22 22 22 28 48 57 56 52 55 58 54 46 36 31 31 31 35 36 40 43 45 45 48 51
50 48 45 44 45 48 47 48 47 66 78 65 65 60 44 38 30 26 20 19 18 20 25 36 51 56 54 53 56 60 60 52 43 39 38 40 43 46 49 51 51 53 54
55 45 41 40 40 37 37 42 46 52 63 62 40 40 37 31 29 22 15 15 15 18 23 26 28 38 44 48 58 64 70 66 59 53 49 48 49 51 55 58 58 58 57
54 45 42 34 37 36 36 38 45 42 52 59 29 30 30 24 22 16 15 16 15 17 18 21 25 30 35 44 58 68 72 75 73 67 61 58 57 58 61 63 64 64 63
59 55 52 45 38 36 34 33 35 38 40 39 28 25 29 22 18 14 15 18 20 19 20 20 22 30 31 34 42 60 71 84 83 80 75 71 68 66 67 69 70 70 72
67 57 49 46 40 35 30 30 30 33 34 37 37 35 30 24 22 19 18 18 19 20 20 20 21 24 30 33 37 56 76 84 91 95 88 84 80 76 74 76 78 72 67
86 81 71 60 49 40 37 36 37 37 34 33 32 32 31 29 26 23 19 21 20 21 21 23 22 23 26 32 39 47 72 79 93 99 100 94 90 85 81 82 94 87 78
82 82 82 76 69 64 58 51 46 42 43 40 36 33 31 29 27 27 24 22 22 23 26 29 32 34 32 34 41 46 62 77 91 100 100 100 97 92 88 90 96 94 89
74 71 70 71 70 71 71 72 68 63 56 52 47 42 41 39 37 33 28 27 27 26 28 31 32 34 35 36 42 46 58 64 90 100 100 100 100 98 94 96 97 92 92
82 82 75 66 61 55 50 47 44 42 46 61 62 59 56 52 45 41 43 40 41 39 37 37 36 36 38 42 46 50 64 71 93 100 100 100 100 99 97 96 97 96 92
94 86 82 82 85 71 58 52 48 44 38 34 50 56 60 62 58 52 47 48 50 58 56 51 47 44 52 50 49 63 72 90 100 100 100 100 100 99 98 99 98 97 96
67 82 85 82 74 77 81 66 53 49 46 41 37 36 42 47 59 62 60 59 62 66 66 68 61 56 55 55 57 78 87 98 100 100 100 100 99 98 99 97 96 99 96
65 63 66 74 80 52 55 70 60 47 44 43 41 37 36 44 39 56 60 64 68 71 73 73 68 64 64 63 68 79 88 100 100 100 100 98 99 98 96 98 98 97 94
63 75 71 69 66 56 51 45 45 38 44 46 40 42 42 37 43 52 56 55 60 68 73 77 81 85 83 76 80 91 97 100 100 100 98 99 100 97 97 97 96 95 94
38 65 77 75 75 68 61 54 51 49 44 45 50 42 49 52 52 59 61 59 62 67 83 90 99 100 100 96 99 100 100 100 100 100 100 98 97 96 96 96 96 96 95
45 40 72 73 76 75 77 72 61 59 64 59 63 64 55 62 65 68 66 68 73 74 84 92 99 100 100 100 100 100 99 99 99 98 97 96 96 96 96 96 96 95 94
Wind_Speed
33 31 28 24 22 17 29 50 56 49 51 46 44 40 40 34 34 33 33 32 32 30 29 28 27 26 25 24 22 20 18 16 15 13 12 11 11 11 12 12 13 15 16
38 36 33 29 28 22 16 40 46 47 43 46 44 43 34 37 35 34 34 34 32 31 30 28 26 26 26 25 21 20 19 17 17 16 14 14 13 13 13 13 14 17 18
38 35 34 31 26 19 21 26 51 51 43 41 36 41 40 44 41 38 37 33 32 33 31 29 29 27 26 25 22 22 21 20 19 18 16 16 14 15 14 15 16 18 19
37 31 33 33 28 18 22 33 48 38 29 36 43 43 42 36 34 35 33 33 33 33 33 32 30 27 28 27 24 23 22 22 21 20 18 18 17 17 16 16 17 19 21
37 32 31 30 23 23 25 48 38 34 29 36 38 34 34 30 31 33 32 35 35 33 32 31 30 31 32 28 26 24 23 23 22 22 21 19 19 19 19 17 17 20 22
37 32 29 30 33 28 28 53 46 42 33 31 26 27 33 27 31 31 31 31 31 31 31 32 33 34 32 29 27 26 26 25 24 24 22 22 22 21 21 21 19 21 22
34 32 34 34 34 29 21 53 52 47 39 31 26 22 34 25 30 29 28 29 29 31 30 31 33 33 32 31 29 28 27 26 26 26 25 25 24 24 24 23 22 22 23
36 33 31 33 32 36 25 31 39 44 41 29 26 23 25 24 28 30 26 31 31 30 29 30 31 31 31 31 31 29 29 28 28 27 27 28 26 26 26 25 25 25 24
43 42 41 41 40 44 41 36 30 23 44 33 32 32 31 32 30 31 29 28 37 37 35 33 32 31 30 31 32 31 30 30 30 30 30 30 28 29 28 28 27 27 27
46 46 45 43 43 43 42 42 36 39 37 46 38 36 32 32 35 35 34 33 35 39 41 40 37 34 33 33 33 32 33 32 33 32 32 31 30 31 31 30 30 29 29
48 48 45 45 45 47 43 43 41 35 36 30 40 36 34 37 42 43 38 38 40 43 44 42 41 39 38 36 36 34 34 35 35 34 34 32 32 32 33 33 32 32 32
47 45 43 43 45 46 46 46 46 44 41 38 41 45 46 51 51 46 38 39 39 42 45 44 44 42 42 41 40 38 37 36 37 36 35 34 35 35 35 34 34 35 35
37 42 42 40 41 42 42 45 47 44 43 44 40 42 49 49 49 45 41 40 40 40 39 42 43 45 46 45 44 42 39 38 38 37 37 37 38 36 36 36 36 37 38
31 33 35 36 36 38 41 42 47 49 49 50 47 46 46 46 47 47 42 39 41 41 41 43 43 43 46 47 47 45 43 42 41 39 40 40 39 37 38 37 38 39 39
28 30 31 33 35 36 39 43 44 46 50 50 51 51 50 47 48 44 44 42 39 40 40 43 42 42 43 47 48 48 47 45 43 42 43 41 39 40 40 39 40 40 40
21 25 31 35 37 38 40 43 44 43 45 47 47 44 43 46 49 50 46 46 44 43 44 45 44 44 41 42 47 50 49 47 46 45 44 42 42 41 41 40 42 44 39
15 17 21 27 34 41 44 45 46 47 48 48 47 45 45 44 42 46 48 46 45 46 45 44 45 45 45 43 43 47 48 49 49 48 45 45 43 43 41 40 41 42 40
14 14 15 17 19 23 31 38 43 45 45 45 45 44 45 45 45 44 46 47 45 45 45 45 44 41 41 43 43 45 48 50 50 49 47 47 46 44 42 39 40 40 37
15 17 17 17 15 14 15 18 23 29 33 37 38 41 42 42 43 44 45 46 46 45 44 42 44 43 44 45 45 47 47 50 50 50 50 50 47 44 41 38 38 36 38
15 16 17 16 16 15 14 13 12 12 13 16 24 31 33 36 39 41 44 43 42 41 39 41 42 43 45 46 47 48 47 50 52 51 51 50 46 45 41 38 39 37 38
17 18 19 21 21 18 17 17 17 15 14 15 14 16 20 25 30 36 41 41 40 37 37 38 41 45 45 46 47 46 48 49 49 49 49 48 46 45 42 40 38 37 37
14 20 24 27 27 28 29 27 24 23 22 21 20 22 22 19 23 28 32 34 34 36 36 36 38 42 44 46 47 43 44 47 47 47 48 48 47 46 44 41 37 37 37
15 17 17 22 29 29 33 36 35 33 30 26 28 28 28 27 25 25 27 29 30 31 31 33 36 39 41 43 43 40 41 45 47 48 49 50 48 47 43 42 39 37 36
17 18 18 20 19 22 26 33 39 39 36 32 35 34 34 33 31 29 28 28 29 30 31 32 33 35 38 40 40 37 41 44 47 50 49 49 48 44 42 39 37 36 36
20 19 18 20 20 21 22 24 27 33 38 39 38 35 36 35 35 34 31 29 28 28 28 28 27 29 32 32 32 33 36 39 43 43 48 46 42 41 38 36 35 35 35
20 20 19 19 19 21 21 21 24 29 35 40 40 40 39 37 35 35 34 32 31 30 30 29 28 29 32 32 31 31 33 41 44 45 43 41 39 36 34 34 35 33 31
Wind_Direction
213 222 229 238 241 241 239 226 219 221 216 195 201 208 204 205 207 207 204 206 208 207 210 211 215 218 222 226 227 232 237 243 250 254 259 262 269 273 277 281 285 286 287
215 222 225 234 237 236 267 230 216 200 216 214 205 209 211 210 209 211 209 206 207 210 212 214 217 221 224 228 231 237 241 245 251 253 256 261 265 270 275 281 285 287 291
213 216 223 232 235 240 269 242 217 211 205 208 208 201 210 210 209 210 209 206 211 213 213 214 219 221 226 229 230 236 242 247 251 254 258 264 268 274 277 281 286 289 289
219 219 225 231 230 257 240 216 198 196 191 201 201 217 206 204 210 210 211 209 212 214 215 218 221 224 228 229 230 236 242 247 252 255 258 264 269 272 274 278 284 286 288
216 213 220 228 227 250 241 212 191 187 186 195 202 207 216 209 209 210 211 212 214 218 219 223 224 227 230 229 232 237 243 248 252 255 258 263 266 271 273 275 279 283 285
218 213 223 233 233 245 244 215 197 186 193 191 195 205 211 202 209 209 216 218 217 220 221 223 226 229 233 232 233 237 242 248 252 257 261 263 267 270 274 277 278 281 284
219 215 224 232 231 239 259 204 206 191 197 196 198 204 215 208 212 214 221 229 229 224 226 229 231 233 235 237 237 238 243 248 253 256 260 264 267 271 274 277 278 279 281
213 206 213 229 232 229 231 233 228 214 204 208 199 206 204 210 219 220 225 232 233 233 232 234 237 237 238 240 241 241 244 246 251 256 260 262 266 270 273 276 279 280 281
210 217 218 221 221 224 231 240 248 231 218 221 219 197 210 231 235 237 239 242 239 236 235 232 233 236 238 240 242 242 244 247 249 252 257 262 267 271 274 277 278 280 282
214 216 218 223 222 223 224 222 245 239 241 215 211 206 224 228 236 255 252 242 244 238 236 234 231 233 234 236 239 241 243 245 248 252 256 261 266 270 273 275 278 281 284
210 217 221 224 225 226 227 222 228 228 228 218 217 211 228 238 243 252 247 240 240 237 236 235 234 233 235 236 238 239 241 243 247 251 255 260 265 269 272 275 279 282 284
206 210 219 225 228 229 230 230 230 226 222 229 229 238 240 245 246 247 236 234 236 237 233 232 233 234 235 236 237 237 240 243 248 252 255 259 263 267 271 275 279 281 283
198 204 213 220 222 225 227 226 221 217 225 226 228 232 237 239 241 243 244 238 237 236 235 235 236 236 236 236 237 238 238 241 244 248 253 256 260 265 270 274 279 282 286
193 199 202 208 215 216 218 222 223 221 220 226 229 233 236 239 242 246 244 242 236 237 238 237 237 238 238 237 236 237 238 240 242 246 249 253 259 264 268 273 277 281 287
203 204 206 209 214 214 216 218 221 224 228 229 230 229 234 238 238 240 243 244 240 237 236 236 236 237 239 237 237 236 236 238 241 244 248 252 257 261 266 272 275 280 285
203 208 216 220 221 221 222 225 230 233 231 234 237 242 240 241 244 244 242 238 242 236 237 239 237 237 239 240 238 236 236 238 240 243 246 251 255 259 264 269 275 279 285
207 210 215 220 222 227 229 233 235 234 238 240 243 247 251 251 251 248 242 237 238 235 236 239 238 239 238 237 237 236 237 238 239 241 245 249 252 256 261 266 272 282 291
211 210 214 219 222 225 230 232 234 238 240 240 243 245 245 246 247 247 245 241 240 234 231 232 235 233 235 237 236 235 233 234 237 239 242 246 249 253 258 264 274 283 290
222 218 213 210 207 203 210 223 231 235 238 241 242 242 242 243 242 242 240 241 239 239 234 231 232 233 236 236 236 235 232 234 235 236 239 243 247 253 257 263 272 277 285
236 236 235 226 221 224 223 225 228 232 233 237 238 239 238 239 239 238 239 238 238 239 238 233 233 233 235 237 236 235 232 233 234 235 236 239 243 249 256 260 268 273 281
261 256 253 253 248 242 243 243 245 251 255 247 246 247 243 241 242 240 239 239 238 238 237 233 232 234 236 238 239 234 231 232 233 235 237 240 243 249 253 255 263 270 277
262 260 259 263 264 258 254 259 258 259 261 262 261 257 254 255 251 245 243 240 239 237 235 233 232 233 236 237 237 233 231 230 231 233 235 237 240 247 249 254 261 271 274
261 256 250 246 256 262 260 258 261 259 259 260 266 259 256 251 253 251 246 244 240 238 238 238 238 239 240 242 243 238 233 231 229 231 231 234 240 244 249 256 260 269 274
261 260 257 253 246 244 248 248 248 254 253 253 256 259 254 251 249 247 247 246 244 242 238 237 238 238 240 241 241 237 234 230 230 231 234 238 241 246 253 259 263 268 275
260 254 254 257 260 257 256 257 251 245 242 243 244 244 246 246 245 243 239 242 242 242 241 240 239 241 245 247 247 242 240 238 238 238 238 239 242 250 256 260 262 266 272
267 259 256 251 253 261 265 266 259 252 242 235 236 233 232 240 242 240 241 241 241 238 236 234 234 233 233 234 234 236 236 236 237 236 235 239 246 253 256 257 259 266 272